FW6366 Weather Reports


Display with metric or nautical units.
time (UTC)temp
F
wind
direction
speed
MPH
gust
MPH
rain 1hr
in
rain 24hr
in
rain mn
in
humidity
%
barometer
mb
20260510111059 47 0 0.0 2.0 0.00 0.20 0.01 97 1010.9
20260510110604 47 0 0.0 2.0 0.00 0.20 0.01 97 1010.9
20260510110058 47 0 0.0 3.0 0.00 0.20 0.01 97 1010.8
20260510105602 46 0 0.0 3.0 0.00 0.20 0.01 97 1010.7
20260510105101 46 172 0.0 2.0 0.00 0.20 0.01 97 1010.6
20260510104604 46 136 0.0 1.0 0.00 0.20 0.01 97 1010.6
20260510104100 46 90 0.0 2.0 0.00 0.20 0.01 97 1010.4
20260510103600 46 0 0.0 2.0 0.00 0.20 0.01 97 1010.5
20260510103100 46 0 0.0 1.0 0.00 0.20 0.01 97 1010.6
20260510102600 45 0 0.0 1.0 0.00 0.20 0.01 97 1010.7
20260510102100 45 0 0.0 2.0 0.00 0.20 0.01 97 1010.6
20260510101602 45 164 0.0 2.0 0.00 0.20 0.01 97 1010.6
20260510101102 46 0 0.0 1.0 0.00 0.20 0.01 97 1010.3
20260510100602 45 0 0.0 1.0 0.00 0.20 0.01 97 1010.1
20260510100059 45 0 0.0 1.0 0.00 0.20 0.01 97 1010.0
20260510095600 45 0 0.0 1.0 0.00 0.20 0.01 97 1009.9
20260510095101 45 0 0.0 2.0 0.01 0.20 0.01 97 1009.8
20260510094611 45 81 0.0 2.0 0.01 0.20 0.01 97 1009.6
20260510094059 45 354 1.0 2.0 0.01 0.20 0.01 97 1009.8
20260510093559 45 309 0.0 2.0 0.01 0.20 0.01 97 1009.6
20260510093120 44 0 0.0 2.0 0.01 0.20 0.01 96 1009.6
20260510092559 45 0 0.0 2.0 0.01 0.20 0.01 96 1009.4
20260510092101 46 0 1.0 2.0 0.01 0.20 0.01 97 1009.3
20260510091602 46 304 0.0 2.0 0.01 0.20 0.01 97 1009.3
20260510091059 46 0 0.0 2.0 0.01 0.20 0.01 96 1009.2
20260510090605 46 80 0.0 2.0 0.01 0.20 0.01 96 1009.2
20260510090100 46 8 1.0 2.0 0.01 0.20 0.01 97 1009.3
20260510085600 47 0 0.0 2.0 0.01 0.20 0.01 96 1009.3
20260510085059 47 0 0.0 2.0 0.00 0.19 0.00 97 1009.2
20260510084605 46 0 0.0 1.0 0.00 0.19 0.00 96 1009.2
20260510084100 47 0 0.0 1.0 0.00 0.19 0.00 96 1009.2
20260510083600 47 0 0.0 1.0 0.00 0.19 0.00 97 1009.1
20260510083101 47 0 0.0 3.0 0.00 0.19 0.00 96 1009.0
20260510082604 47 0 0.0 3.0 0.00 0.19 0.00 96 1009.1
20260510082059 47 330 0.0 2.0 0.00 0.19 0.00 96 1009.3
20260510081601 47 59 0.0 1.0 0.00 0.19 0.00 96 1009.2
20260510081103 47 0 0.0 1.0 0.00 0.19 0.00 97 1009.5
20260510080600 47 0 0.0 3.0 0.00 0.19 0.00 96 1009.6
20260510080100 47 0 0.0 3.0 0.00 0.19 0.00 96 1009.7
20260510075559 48 0 1.0 3.0 0.00 0.19 0.00 96 1009.9
20260510075100 47 298 1.0 2.0 0.00 0.19 0.00 96 1010.1
20260510074602 47 0 0.0 1.0 0.00 0.19 0.00 96 1010.1
20260510074100 47 0 0.0 1.0 0.00 0.19 0.00 96 1010.2
20260510073559 47 260 0.0 1.0 0.00 0.19 0.00 96 1010.4
20260510073059 47 0 0.0 1.0 0.00 0.19 0.00 96 1010.2
20260510072600 47 0 0.0 1.0 0.00 0.19 0.00 96 1010.0
20260510072100 47 0 0.0 1.0 0.00 0.19 0.00 96 1010.1
20260510071601 47 73 0.0 1.0 0.00 0.19 0.00 96 1010.0
20260510071059 47 17 0.0 1.0 0.00 0.19 0.00 96 1009.9
20260510070559 47 0 0.0 1.0 0.00 0.19 0.00 96 1009.9
20260510070100 47 0 0.0 1.0 0.00 0.19 0.00 96 1009.9
20260510065605 47 0 0.0 1.0 0.00 0.19 0.00 96 1009.8
20260510065101 47 0 0.0 2.0 0.00 0.19 0.00 96 1009.8
20260510064602 47 0 0.0 2.0 0.00 0.19 0.00 96 1009.9
20260510064100 47 0 0.0 2.0 0.00 0.19 0.00 96 1009.7
20260510063603 47 349 0.0 2.0 0.00 0.19 0.00 96 1009.6
20260510063100 47 0 0.0 1.0 0.00 0.19 0.00 96 1009.7
20260510062603 47 0 0.0 1.0 0.00 0.19 0.00 96 1009.9
20260510062059 47 0 0.0 1.0 0.00 0.19 0.00 96 1009.8
20260510061559 47 0 0.0 2.0 0.00 0.19 0.00 95 1009.8
20260510061102 47 0 0.0 2.0 0.00 0.19 0.00 95 1009.6
20260510060601 47 0 0.0 1.0 0.00 0.19 0.00 95 1009.6
20260510055559 47 0 0.0 2.0 0.00 0.19 0.00 95 1009.6
20260510055059 48 54 0.0 1.0 0.00 0.19 0.00 95 1009.6
20260510054559 48 0 0.0 2.0 0.00 0.19 0.00 95 1009.7
20260510054100 48 0 0.0 2.0 0.00 0.19 0.00 95 1009.6
20260510053600 48 0 0.0 2.0 0.00 0.19 0.00 95 1009.7
20260510053105 48 27 0.0 2.0 0.00 0.19 0.00 95 1009.7
20260510052600 48 307 0.0 1.0 0.00 0.19 0.00 95 1009.8
20260510052100 48 300 0.0 2.0 0.00 0.19 0.00 95 1009.8
20260510051559 48 0 0.0 2.0 0.00 0.19 0.00 95 1009.9
20260510051100 48 327 0.0 3.0 0.00 0.19 0.00 95 1009.8
20260510050602 48 0 1.0 3.0 0.00 0.19 0.00 95 1009.9
20260510050059 48 305 1.0 3.0 0.00 0.19 0.00 95 1009.8
20260510045600 49 0 1.0 4.0 0.00 0.19 0.00 94 1009.7
20260510045100 49 109 1.0 5.0 0.00 0.19 0.00 94 1009.7
20260510044559 49 231 2.0 5.0 0.00 0.19 0.00 95 1009.7
20260510044059 49 293 2.0 5.0 0.00 0.19 0.00 95 1009.7
20260510043559 49 278 1.0 5.0 0.00 0.19 0.00 95 1009.6
20260510043105 49 254 2.0 4.0 0.00 0.19 0.00 95 1009.9
20260510042600 49 269 2.0 4.0 0.00 0.19 0.00 95 1010.1
20260510042103 48 224 1.0 4.0 0.00 0.19 0.00 95 1010.1
20260510041559 48 0 0.0 3.0 0.00 0.19 0.00 95 1010.1
20260510041100 48 0 0.0 3.0 0.00 0.19 0.00 95 1010.1
20260510040604 48 0 1.0 2.0 0.00 0.19 0.00 95 1010.1
20260510040101 48 301 0.0 3.0 0.00 0.19 0.00 95 1009.9
20260510035601 48 0 0.0 3.0 0.00 0.19 0.19 95 1009.8
20260510035059 48 314 1.0 4.0 0.00 0.19 0.19 95 1009.7
20260510034600 48 295 1.0 4.0 0.00 0.19 0.19 95 1009.9
20260510034100 48 284 1.0 5.0 0.00 0.19 0.19 95 1009.9
20260510033604 48 300 1.0 5.0 0.00 0.19 0.19 95 1010.0
20260510033113 49 285 2.0 5.0 0.00 0.19 0.19 95 1010.0
20260510032559 48 284 1.0 4.0 0.00 0.19 0.19 95 1010.0
20260510032102 48 270 1.0 4.0 0.00 0.19 0.19 95 1009.9
20260510031558 48 233 1.0 4.0 0.00 0.19 0.19 95 1009.9
20260510031059 48 266 2.0 4.0 0.00 0.19 0.19 95 1009.9
20260510030600 48 0 1.0 7.0 0.00 0.19 0.19 95 1010.0
20260510030104 48 0 2.0 7.0 0.00 0.19 0.19 95 1010.0
20260510025601 48 0 2.0 5.0 0.00 0.19 0.19 95 1010.1
20260510025104 48 295 2.0 6.0 0.00 0.19 0.19 95 1009.9
20260510024610 48 300 3.0 6.0 0.00 0.19 0.19 95 1010.1
20260510024100 48 245 1.0 5.0 0.00 0.19 0.19 95 1010.1
20260510023559 48 221 1.0 5.0 0.00 0.19 0.19 96 1010.1
20260510023100 48 242 1.0 4.0 0.00 0.19 0.19 96 1010.1
20260510022600 47 300 1.0 3.0 0.00 0.19 0.19 95 1010.1
20260510022100 47 301 0.0 3.0 0.00 0.19 0.19 95 1010.0
20260510021600 47 0 1.0 3.0 0.00 0.19 0.19 95 1010.0
20260510021059 47 300 1.0 3.0 0.00 0.19 0.19 95 1010.0
20260510020559 47 316 0.0 3.0 0.00 0.19 0.19 95 1010.0
20260510020100 47 322 0.0 4.0 0.00 0.19 0.19 95 1009.9
20260510015559 47 300 1.0 4.0 0.00 0.19 0.19 95 1010.0
20260510015059 47 312 1.0 3.0 0.00 0.19 0.19 95 1010.2
20260510014601 48 307 0.0 3.0 0.00 0.19 0.19 95 1010.2
20260510014101 48 0 1.0 4.0 0.00 0.19 0.19 95 1010.3
20260510013601 48 297 2.0 4.0 0.00 0.19 0.19 95 1010.3
20260510013100 48 0 2.0 4.0 0.00 0.19 0.19 94 1010.3
20260510012600 48 296 2.0 6.0 0.00 0.19 0.19 95 1010.3
20260510012103 48 295 1.0 6.0 0.00 0.19 0.19 95 1010.2
20260510011559 48 245 2.0 5.0 0.00 0.19 0.19 95 1010.2
20260510011100 48 253 1.0 4.0 0.00 0.19 0.19 95 1010.3
20260510010559 48 289 2.0 4.0 0.00 0.19 0.19 94 1010.4
20260510005559 48 287 1.0 5.0 0.00 0.19 0.19 94 1010.2
20260510005100 48 277 2.0 5.0 0.00 0.19 0.19 94 1010.2
20260510004603 48 263 1.0 8.0 0.00 0.19 0.19 94 1010.2
20260510004101 48 243 2.0 8.0 0.00 0.19 0.19 94 1010.2
20260510003601 48 267 2.0 8.0 0.00 0.19 0.19 93 1010.2
20260510003059 49 194 1.0 8.0 0.00 0.19 0.19 93 1010.0
20260510002559 48 0 2.0 8.0 0.00 0.19 0.19 94 1010.0
20260510002059 48 256 1.0 6.0 0.00 0.19 0.19 94 1010.1
20260510001601 48 227 2.0 6.0 0.00 0.19 0.19 94 1010.1
20260510001100 48 253 2.0 4.0 0.00 0.19 0.19 94 1010.0
20260510000600 48 265 1.0 4.0 0.00 0.19 0.19 95 1009.9
20260510000104 48 232 1.0 4.0 0.00 0.19 0.19 95 1009.9
20260509235604 48 238 1.0 4.0 0.00 0.19 0.19 95 1009.8
20260509235059 48 265 1.0 5.0 0.00 0.19 0.19 95 1009.8
20260509234609 48 0 2.0 5.0 0.00 0.19 0.19 95 1009.8
20260509234100 48 0 1.0 3.0 0.00 0.19 0.19 95 1009.6
20260509233603 48 340 0.0 4.0 0.00 0.19 0.19 95 1009.5
20260509233100 48 305 1.0 4.0 0.00 0.19 0.19 95 1009.6
20260509232559 48 289 1.0 4.0 0.00 0.19 0.19 95 1009.5
20260509232059 48 316 1.0 3.0 0.00 0.19 0.19 95 1009.5
20260509231601 48 280 2.0 3.0 0.00 0.19 0.19 95 1009.6
20260509231100 48 300 1.0 4.0 0.00 0.19 0.19 95 1009.5
20260509230603 48 297 1.0 4.0 0.00 0.19 0.19 95 1009.5
20260509230103 48 176 1.0 4.0 0.00 0.19 0.19 95 1009.6
20260509225602 48 277 1.0 4.0 0.00 0.19 0.19 95 1009.6
20260509225059 48 295 0.0 3.0 0.00 0.19 0.19 95 1009.5
20260509224559 48 181 0.0 3.0 0.00 0.19 0.19 95 1009.7
20260509224059 48 0 0.0 2.0 0.00 0.19 0.19 95 1009.8
20260509223603 48 314 0.0 2.0 0.00 0.19 0.19 95 1009.7
20260509223103 48 323 0.0 2.0 0.00 0.19 0.19 95 1009.8
20260509222602 48 289 0.0 2.0 0.00 0.19 0.19 95 1009.8
20260509222059 48 0 1.0 2.0 0.00 0.19 0.19 95 1009.9
20260509221600 48 294 0.0 2.0 0.00 0.19 0.19 95 1009.8
20260509221059 48 0 1.0 3.0 0.00 0.19 0.19 95 1009.8
20260509220601 49 0 0.0 3.0 0.00 0.19 0.19 95 1009.9
20260509215600 49 0 0.0 1.0 0.00 0.19 0.19 95 1009.8
20260509215059 49 328 0.0 3.0 0.00 0.19 0.19 95 1009.8
20260509214633 48 323 0.0 3.0 0.00 0.19 0.19 95 1009.7
20260509214059 48 0 1.0 3.0 0.00 0.19 0.19 95 1009.9
20260509213559 48 0 1.0 3.0 0.00 0.19 0.19 95 1010.0
20260509213103 48 281 1.0 3.0 0.00 0.19 0.19 95 1010.1
20260509212559 48 302 1.0 3.0 0.00 0.19 0.19 95 1010.1
20260509212100 48 280 1.0 3.0 0.00 0.19 0.19 95 1010.2
20260509211558 48 244 0.0 3.0 0.00 0.19 0.19 94 1010.2
20260509211103 48 302 1.0 3.0 0.01 0.19 0.19 94 1010.3
20260509210600 48 299 1.0 3.0 0.01 0.19 0.19 95 1010.3
20260509210109 48 286 1.0 3.0 0.01 0.19 0.19 94 1010.3
20260509205600 48 269 1.0 3.0 0.01 0.19 0.19 94 1010.3
20260509205059 48 289 1.0 3.0 0.01 0.19 0.19 94 1010.3
20260509204600 49 276 1.0 2.0 0.02 0.19 0.19 94 1010.4
20260509204100 49 288 0.0 3.0 0.02 0.19 0.19 94 1010.3
20260509203604 49 289 1.0 6.0 0.02 0.19 0.19 93 1010.3
20260509203116 49 240 0.0 6.0 0.03 0.19 0.19 93 1010.3
20260509202559 49 321 1.0 6.0 0.03 0.19 0.19 93 1010.5
20260509202100 49 307 1.0 4.0 0.03 0.19 0.19 93 1010.6
20260509201600 49 188 0.0 3.0 0.04 0.19 0.19 93 1010.6
20260509201102 49 287 1.0 6.0 0.03 0.18 0.18 93 1010.7
20260509200602 49 197 1.0 6.0 0.03 0.18 0.18 93 1010.5
20260509200100 49 268 0.0 4.0 0.03 0.18 0.18 93 1010.6
20260509195558 49 172 0.0 3.0 0.04 0.18 0.18 94 1010.6
20260509195100 49 0 0.0 2.0 0.05 0.18 0.18 94 1010.6
20260509194600 49 0 0.0 2.0 0.05 0.17 0.17 94 1010.6
20260509194100 49 0 0.0 1.0 0.05 0.17 0.17 94 1010.6
20260509193602 49 0 0.0 2.0 0.06 0.17 0.17 94 1010.7
20260509193111 49 0 0.0 2.0 0.05 0.16 0.16 94 1010.7
20260509192601 49 0 0.0 2.0 0.05 0.16 0.16 94 1010.6
20260509192059 48 0 0.0 2.0 0.05 0.16 0.16 93 1010.7
20260509191607 48 0 0.0 2.0 0.05 0.15 0.15 94 1010.8
20260509191100 48 207 0.0 3.0 0.05 0.15 0.15 94 1010.8
20260509190600 48 0 0.0 3.0 0.05 0.15 0.15 94 1010.9
20260509190100 48 238 0.0 3.0 0.05 0.15 0.15 93 1011.0
20260509185600 48 232 0.0 4.0 0.04 0.14 0.14 93 1010.9
20260509185059 48 319 0.0 4.0 0.04 0.13 0.13 93 1011.0
20260509184602 48 252 0.0 4.0 0.03 0.12 0.12 93 1010.9
20260509184100 48 290 0.0 3.0 0.03 0.12 0.12 93 1011.1
20260509183602 48 290 0.0 3.0 0.02 0.11 0.11 93 1011.1
20260509183101 48 0 1.0 3.0 0.02 0.11 0.11 93 1011.2
20260509182600 48 274 0.0 3.0 0.02 0.11 0.11 93 1011.2
20260509182101 48 0 0.0 2.0 0.02 0.11 0.11 93 1011.2
20260509181603 49 288 0.0 5.0 0.01 0.10 0.10 92 1011.2
20260509181101 49 0 1.0 5.0 0.01 0.10 0.10 92 1011.3
20260509180601 49 185 1.0 3.0 0.01 0.10 0.10 91 1011.3
20260509180109 49 315 1.0 3.0 0.01 0.10 0.10 92 1011.3
20260509175559 49 222 1.0 3.0 0.01 0.10 0.10 91 1011.1
20260509175100 49 0 0.0 2.0 0.01 0.09 0.09 91 1011.3
20260509174621 49 0 0.0 2.0 0.01 0.09 0.09 91 1011.4
20260509174101 49 0 0.0 4.0 0.01 0.09 0.09 90 1011.4
20260509173600 49 134 0.0 4.0 0.01 0.09 0.09 91 1011.3
20260509173100 49 171 0.0 4.0 0.01 0.09 0.09 91 1011.4
20260509172603 49 0 0.0 2.0 0.02 0.09 0.09 91 1011.5
20260509172101 49 0 0.0 2.0 0.02 0.09 0.09 90 1011.5
20260509171559 49 180 0.0 9.0 0.03 0.09 0.09 90 1011.6
20260509171059 48 164 2.0 9.0 0.03 0.09 0.09 90 1011.7
20260509170602 48 170 3.0 9.0 0.03 0.09 0.09 91 1011.7
20260509170107 48 0 2.0 7.0 0.03 0.09 0.09 91 1011.9
20260509165600 48 243 2.0 4.0 0.04 0.09 0.09 91 1011.9
20260509165100 48 0 1.0 4.0 0.03 0.08 0.08 92 1011.9
20260509164600 48 245 1.0 4.0 0.04 0.08 0.08 91 1012.1
20260509164058 48 204 2.0 4.0 0.05 0.08 0.08 91 1012.1
20260509163559 48 238 1.0 4.0 0.05 0.08 0.08 91 1012.2
20260509163101 48 221 1.0 4.0 0.06 0.08 0.08 91 1012.3
20260509162559 47 0 1.0 3.0 0.05 0.07 0.07 91 1012.4
20260509162059 47 0 0.0 3.0 0.06 0.07 0.07 91 1012.5
20260509161602 48 243 1.0 4.0 0.05 0.06 0.06 91 1012.6
20260509161101 47 179 1.0 5.0 0.05 0.06 0.06 90 1012.7
20260509160600 47 213 0.0 5.0 0.05 0.06 0.06 90 1012.6
20260509160101 47 250 2.0 5.0 0.05 0.06 0.06 90 1012.7
20260509155559 47 252 1.0 8.0 0.04 0.05 0.05 91 1012.6
20260509155059 47 275 0.0 8.0 0.04 0.05 0.05 90 1012.7
20260509154601 47 219 1.0 7.0 0.03 0.04 0.04 89 1012.9
20260509154059 47 211 1.0 7.0 0.03 0.03 0.03 88 1013.0
20260509153559 47 277 1.0 4.0 0.03 0.03 0.03 88 1013.0
20260509153118 47 252 1.0 4.0 0.02 0.02 0.02 87 1013.1
20260509152600 48 284 1.0 5.0 0.02 0.02 0.02 87 1013.0
20260509152058 48 0 1.0 5.0 0.01 0.01 0.01 86 1013.0
20260509151600 48 244 1.0 4.0 0.01 0.01 0.01 87 1013.1
20260509151103 48 327 0.0 3.0 0.01 0.01 0.01 87 1013.2
20260509150559 47 263 1.0 3.0 0.01 0.01 0.01 85 1013.3
20260509150058 48 207 0.0 2.0 0.01 0.01 0.01 87 1013.3
20260509145559 48 271 0.0 2.0 0.01 0.01 0.01 87 1013.3
20260509145101 48 0 0.0 5.0 0.01 0.01 0.01 85 1013.3
20260509144600 48 195 1.0 5.0 0.01 0.01 0.01 84 1013.3
20260509144058 48 174 0.0 3.0 0.00 0.00 0.00 81 1013.3
20260509143601 48 168 1.0 4.0 0.00 0.00 0.00 80 1013.2
20260509143100 48 212 1.0 4.0 0.00 0.00 0.00 79 1013.2
20260509142602 49 200 1.0 6.0 0.00 0.00 0.00 79 1013.2
20260509142100 49 0 1.0 6.0 0.00 0.00 0.00 78 1013.1
20260509141601 49 181 1.0 4.0 0.00 0.00 0.00 77 1013.0
20260509141102 49 189 1.0 4.0 0.00 0.00 0.00 77 1012.9
20260509140600 49 191 1.0 4.0 0.00 0.00 0.00 77 1012.8
20260509135559 49 0 0.0 4.0 0.00 0.00 0.00 75 1012.8
20260509135059 49 243 1.0 4.0 0.00 0.00 0.00 73 1012.9
20260509134602 48 64 2.0 7.0 0.00 0.00 0.00 71 1013.0
20260509134100 48 59 1.0 7.0 0.00 0.00 0.00 70 1012.9
20260509133603 48 158 1.0 7.0 0.00 0.00 0.00 72 1012.8
20260509133100 47 70 0.0 2.0 0.00 0.00 0.00 73 1012.7
20260509132559 47 0 0.0 3.0 0.00 0.00 0.00 74 1012.8
20260509132100 46 34 0.0 4.0 0.00 0.00 0.00 74 1012.7
20260509131601 45 0 1.0 5.0 0.00 0.00 0.00 75 1012.7
20260509131100 45 38 0.0 5.0 0.00 0.00 0.00 76 1012.9
20260509130601 45 57 2.0 5.0 0.00 0.00 0.00 75 1012.8
20260509130107 45 52 2.0 5.0 0.00 0.00 0.00 75 1012.9
20260509125558 45 65 0.0 5.0 0.00 0.00 0.00 76 1013.0
20260509125100 44 335 2.0 5.0 0.00 0.00 0.00 78 1012.9
20260509124600 43 75 1.0 4.0 0.00 0.00 0.00 78 1013.0
20260509124102 43 46 1.0 3.0 0.00 0.00 0.00 80 1013.1
20260509123559 42 41 1.0 3.0 0.00 0.00 0.00 80 1013.2
20260509123100 42 89 1.0 3.0 0.00 0.00 0.00 81 1013.4
20260509122600 42 56 1.0 3.0 0.00 0.00 0.00 82 1013.3
20260509122057 42 17 1.0 2.0 0.00 0.00 0.00 83 1013.5
20260509121628 41 0 0.0 2.0 0.00 0.00 0.00 83 1013.4
20260509121102 41 0 0.0 2.0 0.00 0.00 0.00 84 1013.4
20260509120600 40 0 0.0 1.0 0.00 0.00 0.00 86 1013.3
20260509120059 40 0 0.0 2.0 0.00 0.00 0.00 87 1013.4
20260509115600 39 0 0.0 2.0 0.00 0.00 0.00 88 1013.5
20260509115059 39 0 0.0 2.0 0.00 0.00 0.00 89 1013.6
20260509114608 38 0 0.0 2.0 0.00 0.00 0.00 90 1013.5
20260509114100 38 142 0.0 2.0 0.00 0.00 0.00 91 1013.6
20260509113603 37 0 0.0 2.0 0.00 0.00 0.00 92 1013.6
20260509113101 36 0 0.0 2.0 0.00 0.00 0.00 93 1013.7
20260509112557 36 52 0.0 2.0 0.00 0.00 0.00 93 1013.7
20260509112057 36 86 0.0 2.0 0.00 0.00 0.00 93 1013.8
20260509111600 35 0 0.0 1.0 0.00 0.00 0.00 93 1013.8